www.pogodaiklimat.ru
ПОГОДА в Лелистаде
Время
(UTC), дата
16 28.06
17 28.06
18 28.06
19 28.06
20 28.06
21 28.06
22 28.06
23 28.06
00 29.06
01 29.06
02 29.06
03 29.06
04 29.06
05 29.06
06 29.06
07 29.06
08 29.06
09 29.06
10 29.06
11 29.06
12 29.06
13 29.06
14 29.06
15 29.06
16 29.06
17 29.06
18 29.06
19 29.06
20 29.06
21 29.06
22 29.06
23 29.06
00 30.06
01 30.06
02 30.06
03 30.06
04 30.06
05 30.06
06 30.06
07 30.06
08 30.06
09 30.06
10 30.06
11 30.06
12 30.06
13 30.06
14 30.06
15 30.06
16 30.06
17 30.06
18 30.06
19 30.06
20 30.06
21 30.06
22 30.06
23 30.06
00 1.07
01 1.07
02 1.07
03 1.07
04 1.07
05 1.07
06 1.07
07 1.07
08 1.07
09 1.07
10 1.07
11 1.07
12 1.07
13 1.07
14 1.07
15 1.07
16 1.07
17 1.07
18 1.07
19 1.07
20 1.07
21 1.07
22 1.07
23 1.07
00 2.07
01 2.07
02 2.07
03 2.07
04 2.07
05 2.07
06 2.07
07 2.07
08 2.07
09 2.07
10 2.07
11 2.07
12 2.07
13 2.07
14 2.07
15 2.07
16 2.07
17 2.07
18 2.07
19 2.07
20 2.07
21 2.07
22 2.07
23 2.07
00 3.07
01 3.07
02 3.07
03 3.07
04 3.07
05 3.07
06 3.07
07 3.07
08 3.07
09 3.07
10 3.07
11 3.07
12 3.07
13 3.07
14 3.07
15 3.07
16 3.07
17 3.07
18 3.07
19 3.07
20 3.07
21 3.07
22 3.07
23 3.07
00 4.07
01 4.07
02 4.07
03 4.07
04 4.07
05 4.07
06 4.07
07 4.07
08 4.07
09 4.07
10 4.07
11 4.07
12 4.07
13 4.07
14 4.07
15 4.07
16 4.07
17 4.07
18 4.07
19 4.07
20 4.07
21 4.07
22 4.07
23 4.07
00 5.07
01 5.07
02 5.07
03 5.07
04 5.07
05 5.07
06 5.07
07 5.07
08 5.07
09 5.07
10 5.07
11 5.07
12 5.07
13 5.07
14 5.07
15 5.07
Ветер
(напр.,м/с)
Видим. Явления Облачность Т
(С)
Тd
(С)
f
(%)
Тe
(С)
Тes
(С)
Комфортность P
(гПа)
Po
(гПа)
Тmin
(С)
Tmax
(С)
R
(мм)
R24
(мм)
S
(см)
ЮЗ 10 30 км {ливн. дождь} 1/1 1500 м
[]
+20.4 +7.9 44 +21 +21 комфорт 1012.1 1012.6
ЮЗ 9 40 км {ливн. дождь} ясно +20.1 +7.5 44 +20 +21 1012.0 1012.5
ЮЗ 8-12
{15}
35 км {ливн. дождь} 3 балла +19.8 +8.8 49 +20 +20 1011.9 1012.4 +21.7 0.5
ЮЗ 5 35 км ясно +18.2 +9.4 56 +18 +18 1011.9 1012.4
ЮЗ 6 40 км 4/4
[]
+16.8 +9.0 60 +16 +16 1011.8 1012.3
ЮЗ 5-7
{12}
35 км ясно +15.4 +8.5 63 +14 +14 1011.9 1012.4
Ю 3-5
{5}
28 км 10/10
[]
+14.6 +9.9 73 +14 +14 1011.6 1012.2
Ю 3-5
{5}
29 км 6/6
[]
+13.7 +9.7 77 +13 +13 1011.4 1011.9
Ю 4-5
{12}
35 км ясно +13.2 +9.4 78 +12 +12 1011.0 1011.5
ЮЗ 5-6
{7}
45 км 6/6
[]
+13.5 +8.6 72 +12 +12 1010.8 1011.3
ЮЗ 5-7
{8}
45 км 6/6
[]
+13.2 +8.7 74 +11 +11 1010.4 1010.9
Ю 5-6
{8}
40 км 4/0
[]
+12.9 +8.5 75 +11 +11 1010.1 1010.7
Ю 5 40 км 10/10
[]
+13.3 +9.2 76 +11 +11 1010.1 1010.7
ЮЗ 7 30 км 10/10
[]
+13.6 +9.4 76 +11 +11 1009.9 1010.4
Ю 7-10
{10}
25 км 3/0
[]
+15.0 +10.5 74 +13 +14 1009.9 1010.5 +12.6 0.5
ЮЗ 8 20 км 10/10 1500 м
[]
+15.4 +10.7 74 +13 +13 1010.0 1010.5
ЮЗ 8 27 км 10/10 2000 м
[]
+17.0 +10.9 67 +16 +16 1010.1 1010.5 +12.6
ЮЗ 9-13
{13}
30 км 9/9 840 м
[]
+17.2 +10.6 65 +16 +16 1010.1 1010.6
ЮЗ 9 35 км 10/10 1500 м
[]
+17.2 +8.9 58 +16 +16 1010.2 1010.7
ЮЗ 10 28 км 10/10 1500 м
[]
+17.8 +9.5 58 +17 +17 1010.3 1010.8
ЮЗ 10-13
{16}
28 км 10 баллов +17.2 +8.3 56 +16 +16 1010.2 1010.7
ЮЗ 10 35 км 10/10 1500 м
[]
+17.0 +8.7 58 +15 +15 1010.3 1010.7
ЮЗ 8 30 км 10/10 1000 м
[]
+16.5 +9.7 64 +15 +15 1010.2 1010.7
ЮЗ 11-16
{16}
26 км 10/10 1140 м
[]
+17.7 +9.6 59 +16 +16 1009.6 1010.2
ЮЗ 10 29 км 10/10 1000 м
[]
+17.2 +9.2 59 +16 +16 1009.7 1010.2
ЮЗ 8 25 км 9/9 1500 м
[]
+17.8 +8.8 56 +17 +17 1009.2 1009.7
ЮЗ 11-16
{17}
27 км 3 балла +17.3 +7.7 53 +16 +16 1009.1 1009.6 +19.2
ЮЗ 9 24 км 10/10 1500 м
[]
+16.6 +8.5 59 +15 +15 1008.8 1009.3
ЮЗ 9 29 км 10/10 1500 м
[]
+16.4 +8.3 59 +15 +15 1008.8 1009.2
ЮЗ 10-14
{16}
26 км 10/10 1500 м
[]
+15.9 +8.3 61 +14 +14 1008.7 1009.2
ЮЗ 9-15
{15}
21 км 10/10 1500 м
[]
+15.9 +9.6 66 +14 +14 1008.5 1009.1
ЮЗ 7-10
{15}
18 км в посл. час дождь {ливн. дождь} 10/10 1000 м
[]
+14.6 +11.1 80 +13 +13 1008.1 1008.7
ЮЗ 7-10
{16}
17 км {ливн. дождь, морось} 10 баллов +15.1 +10.7 75 +13 +13 1007.7 1008.2
ЮЗ 6-8
{10}
6000 м сильн. морось {ливн. дождь, дождь} 10/10 600 м
[]
+13.7 +12.0 89 +11 +11 1007.5 1008.0 0.3
ЮЗ 6-8
{9}
15 км в посл. час дождь {ливн. дождь, морось} 10/10 1000 м
[]
+13.7 +12.5 92 +11 +11 1007.2 1007.8 0.5
ЮЗ 7-9
{10}
14 км {ливн. дождь, морось} 10/10 960 м
[]
+13.6 +12.6 94 +11 +11 1006.9 1007.3
ЮЗ 6 19 км {ливн. дождь, морось} 10/10 600 м
[]
+13.8 +11.5 86 +12 +12 1007.1 1007.6
ЮЗ 8 10 км {ливн. дождь, морось} 10/10 600 м
[]
+13.5 +12.3 92 +11 +11 1007.1 1007.5
ЮЗ 7-9
{12}
10 км в посл. час дождь {ливн. дождь, морось} 10/10 500 м
[]
+13.7 +12.4 92 +11 +11 1007.0 1007.5 +13.3 0.5 1.3
ЮЗ 8 6000 м в посл. час дождь {ливн. дождь} 10/10 600 м
[]
+13.5 +12.3 92 +11 +11 1007.4 1007.9
ЮЗ 6 6000 м слаб. морось {дымка} 10/6 300 м
[]
+13.5 +12.8 96 +11 +12 1007.7 1008.2 0.1
ЮЗ 6-9
{11}
9000 м слаб. морось {дымка} 10/10 500 м
[]
+14.4 +12.3 87 +12 +12 1007.6 1008.1
ЮЗ 8 26 км в посл. час морось {ливн. дождь, дымка} 10/10 1000 м
[]
+18.1 +13.0 72 +17 +17 1007.4 1008.0
ЮЗ 9 30 км {ливн. дождь, дымка} 10/10 1000 м
[]
+18.0 +11.4 65 +17 +17 1007.5 1008.0
ЮЗ 8-12
{15}
35 км {ливн. дождь, дымка} 10/10 960 м
[]
+17.6 +11.0 65 +17 +17 1007.7 1008.2
З 9 35 км 10/10
[]
+19.2 +10.7 58 +19 +19 1007.6 1008.1
З 8 40 км 10/10 1500 м
[]
+18.3 +12.0 67 +18 +18 1007.8 1008.2
ЮЗ 6-9
{15}
10 км морось с дождем {ливн. дождь} 10/10 450 м
[]
+16.3 +14.3 88 +15 +16 1007.7 1008.2 0.8
ЮЗ 4 9000 м слаб. морось {дождь} 10/6 300 м
[]
+16.2 +15.1 93 +15 +16 1007.2 1007.7 0.3
Ю 6 5000 м морось {ливн. дождь, дождь} 10/6 300 м
[]
+16.0 +15.3 96 +15 +15 1006.5 1007.0 0.4
ЮЗ 7-12
{15}
4500 м сильн. дождь {ливн. дождь, морось} 10/10 180 м
[]
+16.0 +15.4 96 +14 +15 1006.2 1006.7 +19.4 3
З 6 4600 м морось {дождь} 10/9 300 м
[]
+16.3 +15.5 95 +15 +15 1006.1 1006.6 0.4
ЮЗ 6 30 км в посл. час морось {дождь} 10/10 300 м
[]
+16.3 +15.2 93 +15 +15 1006.2 1006.7
ЮЗ 5-7
{12}
7000 м слаб. морось с дождем {дымка} 10/10 240 м
[]
+16.1 +15.3 95 +15 +15 1006.4 1006.9
ЮЗ 4-6
{8}
15 км в посл. час дождь {морось} 10/10 600 м
[]
+16.0 +15.2 95 +15 +15 1006.4 1006.9 0.1
ЮЗ 4-5
{6}
13 км в посл. час дождь {морось} 10/9 600 м
[]
+16.0 +15.3 96 +15 +15 1006.2 1006.7 0.1
ЮЗ 3-4
{12}
12 км {дождь, морось} 10/10 750 м
[]
+15.9 +15.3 96 +15 +15 1005.9 1006.5
Ю 3 15 км 10/10 300 м
[]
+16.0 +15.4 96 +15 +15 1005.5 1006.1
ЮЗ 3-4
{4}
7000 м слаб. морось {дымка} 10/6 300 м
[]
+16.1 +15.6 97 +16 +16 1005.2 1005.8
Ю 3-5
{5}
10 км в посл. час морось {дымка} 10/10 180 м
[]
+16.2 +15.8 97 +16 +16 1005.0 1005.5
ЮЗ 3 12 км {морось, дымка} 10/6 200 м
[]
+16.4 +15.8 96 +16 +16 1004.6 1005.2
ЮЗ 4 6000 м дымка 10/8 300 м
[]
+16.6 +15.9 96 +16 +16 1004.7 1005.3
ЮЗ 4-6
{7}
5000 м сильн. морось {ливн. дождь, дымка} 10/10 180 м
[]
+16.6 +16.2 97 +16 +16 1004.6 1005.2 +15.9 0.5 5.8
ЮЗ 6 40 км в посл. час морось 10/9 1000 м
[]
+17.5 +15.2 86 +17 +17 1004.6 1005.1
ЮЗ 6 35 км 10/10 600 м
[]
+18.6 +15.5 82 +19 +19 1004.6 1005.2
ЮЗ 5-7
{11}
40 км в посл. час дождь 10/10 450 м
[]
+19.0 +16.2 84 +20 +20 1004.4 1004.9
ЮЗ 8 35 км {ливн. дождь} 10/10 600 м
[]
+19.6 +15.9 79 +21 +21 комфорт 1004.3 1004.7
ЮЗ 8 35 км {ливн. дождь} 10/10 600 м
[]
+20.0 +15.3 74 +22 +22 комфорт 1004.4 1004.9
ЮЗ 8-11
{12}
35 км {ливн. дождь} 10/10 630 м
[]
+19.7 +14.9 74 +21 +22 комфорт 1004.8 1005.3
З 8 29 км 9/9 1000 м
[]
+20.8 +14.1 65 +23 +23 комфорт 1005.1 1005.6
З 8 35 км 10/10 1000 м
[]
+18.7 +12.7 68 +19 +19 1005.5 1006.0
З 8-12
{13}
35 км 10/10 1020 м
[]
+20.1 +12.3 61 +21 +21 комфорт 1005.9 1006.3
З 9 35 км 6/6
[]
+20.0 +11.7 59 +21 +21 комфорт 1006.1 1006.6
З 7 40 км 10/10 2000 м
[]
+19.5 +11.6 60 +20 +20 1006.3 1006.8
З 5-7
{13}
45 км 10/10
[]
+18.7 +11.7 64 +19 +19 1006.6 1007.1 +21.2
З 4 45 км 9/9 2000 м
[]
+18.1 +12.2 68 +18 +18 1006.6 1007.1
З 4 40 км 1/1
[]
+17.1 +12.2 73 +17 +17 1006.8 1007.3
ЮЗ 4-4
{8}
30 км 6/0
[]
+14.7 +12.3 86 +13 +13 1007.4 1007.8
ЮЗ 3-4
{4}
30 км 8/8
[]
+14.1 +12.3 89 +13 +13 1007.5 1008.0
ЮЗ 3-4
{5}
35 км 9/9
[]
+14.2 +12.3 88 +13 +13 1007.5 1008.0
ЮЗ 3-4
{8}
30 км 4 балла +14.1 +12.4 89 +13 +13 1007.5 1008.0
ЮЗ 3-4
{5}
25 км 10/10 600 м
[]
+14.7 +13.2 91 +14 +14 1007.6 1008.1
ЮЗ 4-6
{6}
24 км 10/10 600 м
[]
+15.4 +13.6 89 +14 +14 1007.5 1008.0
ЮЗ 5-6
{6}
25 км 10/10 660 м
[]
+15.3 +13.6 90 +14 +14 1007.6 1008.1
ЮЗ 4 26 км 10/10
[]
+15.5 +13.7 89 +14 +14 1007.6 1008.1
ЮЗ 6 22 км 10/6 600 м
[]
+15.9 +14.1 89 +15 +15 1007.9 1008.4
ЮЗ 5-7
{8}
10 км слаб. ливневой дождь 10/10 720 м
[]
+16.0 +14.6 91 +15 +15 1008.3 1008.8 +13.7
ЮЗ 5 17 км в посл. час дождь {ливн. дождь} 10/10 300 м
[]
+16.9 +14.8 87 +16 +16 1008.3 1008.8
ЮЗ 5 18 км {ливн. дождь} 10/10 300 м
[]
+17.4 +14.9 85 +17 +17 1008.7 1009.2
ЮЗ 6-8
{9}
5000 м ливневой дождь {морось} 10/10 360 м
[]
+15.9 +15.0 94 +14 +15 1009.3 1009.8 8
З 7 30 км в посл. час дождь {ливн. дождь, морось} 9/9 2000 м
[]
+19.1 +14.6 75 +20 +20 1009.4 1009.9 0.3
З 6 35 км {ливн. дождь, морось} 10/10 1500 м
[]
+19.5 +13.5 68 +21 +21 комфорт 1009.9 1010.4
З 7-11
{11}
40 км {ливн. дождь, морось} 10/10 1300 м
[]
+18.8 +12.7 68 +19 +19 1010.1 1010.6
З 8 40 км 10/10 1500 м
[]
+19.3 +11.2 59 +20 +20 1010.6 1011.0
З 7 35 км 1/1 1000 м
[]
+20.0 +11.3 57 +21 +24 комфорт 1010.8 1011.3
З 6-9
{11}
45 км 10/10 1080 м
[]
+19.4 +12.2 63 +20 +20 1010.9 1011.4
З 7 40 км 10/10
[]
+18.9 +11.0 60 +19 +19 1011.3 1011.8
З 5 40 км 10/10
[]
+18.7 +10.5 59 +19 +19 1011.5 1012.0
З 6-8
{11}
35 км 9/6 1500 м
[]
+17.9 +11.4 66 +17 +17 1012.0 1012.5 +20.3
З 4 35 км 3/3
[]
+17.0 +12.0 72 +17 +17 1012.4 1012.8
З 3 30 км 10/10
[]
+16.5 +12.8 79 +16 +16 1012.8 1013.2
З 4-6
{8}
30 км ясно +15.4 +11.8 79 +14 +14 1013.2 1013.7
ЮЗ 3-4
{5}
30 км ясно +13.4 +11.6 89 +12 +12 1013.4 1013.9
ЮЗ 2-2
{4}
30 км 10/10 600 м
[]
+13.8 +12.5 92 +13 +13 1013.7 1014.2
ЮЗ 2-3
{8}
13 км 10/10 600 м
[]
+14.5 +13.4 93 +14 +14 1013.8 1014.3
ЮЗ 2-3
{3}
13 км ясно +13.0 +12.2 95 +12 +12 1013.9 1014.4
Ю 3-3
{4}
11 км 8/8
[]
+13.2 +12.6 96 +12 +12 1013.8 1014.3
ЮЗ 2-3
{4}
5000 м дымка 10/8 360 м
[]
+12.5 +12.2 98 +11 +11 1014.0 1014.5
ЮЗ 3 6000 м дымка 10/10
[]
+12.9 +12.5 97 +11 +11 1014.4 1014.9
З 3 13 км 10/10 600 м
[]
+14.9 +13.7 93 +14 +14 1015.0 1015.5
ЮЗ 3-4
{5}
12 км 10/10 720 м
[]
+15.4 +14.3 93 +15 +15 1015.2 1015.7 +12.4 8.6
ЮЗ 6 35 км 10/10 600 м
[]
+16.2 +13.1 82 +15 +15 1015.5 1016.0
ЮЗ 5 35 км 10/10 600 м
[]
+17.3 +12.9 75 +17 +17 1015.8 1016.2
ЮЗ 6-8
{9}
35 км 9/9 750 м
[]
+18.4 +12.8 70 +18 +19 1015.8 1016.3
ЮЗ 6 35 км 9/9 1000 м
[]
+19.7 +13.1 66 +21 +22 комфорт 1015.7 1016.2
ЮЗ 7 28 км 9/8 1000 м
[]
+19.6 +13.5 68 +21 +21 комфорт 1015.8 1016.2
ЮЗ 8-11
{11}
24 км 9 баллов +20.7 +14.7 68 +23 +23 комфорт 1015.6 1016.2
З 10 35 км 10/8 1500 м
[]
+20.6 +12.5 60 +22 +22 комфорт 1015.3 1015.9
ЮЗ 11 40 км 9/9
[]
+20.8 +10.8 53 +22 +22 комфорт 1015.5 1016.0
ЮЗ 11-15
{15}
40 км 10/0
[]
+20.3 +9.4 50 +21 +21 комфорт 1015.4 1015.8
ЮЗ 8 40 км 10/10
[]
+20.3 +11.1 55 +21 +21 комфорт 1015.2 1015.7
ЮЗ 9 35 км 10/10
[]
+18.9 +11.0 60 +19 +19 1015.1 1015.6
ЮЗ 8-12
{15}
40 км 10/0
[]
+18.8 +10.8 60 +19 +19 1015.1 1015.6 +21.8
ЮЗ 8 45 км 10/10
[]
+17.6 +10.3 62 +17 +17 1015.1 1015.6
ЮЗ 10 40 км 10/10
[]
+16.9 +10.4 66 +15 +15 1015.0 1015.5
ЮЗ 8-12
{16}
45 км 10/0
[]
+16.8 +10.4 66 +15 +15 1014.8 1015.4
ЮЗ 9-15
{15}
45 км 10/10
[]
+16.5 +11.0 70 +15 +15 1014.5 1015.1
ЮЗ 10-13
{14}
30 км 10/10 2000 м
[]
+16.7 +11.6 72 +15 +15 1014.1 1014.6
ЮЗ 8-10
{16}
40 км 10/10 800 м
[]
+16.4 +11.5 73 +15 +15 1013.8 1014.3
ЮЗ 8-10
{12}
40 км в посл. час дождь {ливн. дождь, морось} 10/6 1000 м
[]
+16.4 +11.5 73 +15 +15 1013.5 1014.1
ЮЗ 8-11
{16}
30 км {ливн. дождь, морось} 10/10 600 м
[]
+15.9 +12.0 78 +14 +14 1013.5 1014.0
ЮЗ 8-10
{16}
30 км в посл. час дождь {ливн. дождь, морось} 10/10 300 м
[]
+14.5 +12.6 88 +12 +12 1013.3 1013.9
ЮЗ 8 16 км морось {ливн. дождь, дождь} 10/9 300 м
[]
+14.1 +12.9 92 +12 +12 1012.8 1013.4
ЮЗ 9 40 км в посл. час морось {ливн. дождь, дождь} 10/10 600 м
[]
+14.5 +12.8 90 +12 +12 1012.4 1013.0
ЮЗ 9-12
{16}
40 км {ливн. дождь, морось} 10/10 450 м
[]
+15.4 +13.0 86 +13 +13 1012.2 1012.7 +13.9
ЮЗ 10 30 км 10/10 300 м
[]
+16.0 +13.5 85 +14 +14 1011.9 1012.4
ЮЗ 9 8000 м слаб. морось 10/10 300 м
[]
+16.5 +14.6 89 +15 +15 1011.6 1012.1
ЮЗ 8-11
{13}
4000 м слаб. дождь {морось} 10/10 180 м
[]
+16.2 +15.5 96 +15 +15 1011.7 1012.3 0.2
ЮЗ 10 45 км в посл. час дождь {ливн. дождь, морось} 10/10 300 м
[]
+16.2 +14.9 92 +14 +14 1011.7 1012.1 0.2
ЮЗ 9 13 км {ливн. дождь, дождь} 10/10 300 м
[]
+16.4 +15.0 91 +15 +15 1011.9 1012.3
ЮЗ 9-12
{14}
21 км {ливн. дождь, дождь} 10/10 330 м
[]
+17.1 +15.1 88 +16 +16 1011.7 1012.1
ЮЗ 10 9000 м дымка 10/10 300 м
[]
+17.5 +15.7 89 +16 +16 1011.7 1012.2
ЮЗ 8 2400 м морось {ливн. дождь, дымка} 10/10 200 м
[]
+17.2 +16.5 96 +16 +16 1011.7 1012.1 0.1
ЮЗ 8-10
{15}
2600 м морось {ливн. дождь, дымка} 10/10 150 м
[]
+17.3 +16.7 96 +16 +16 1011.7 1012.2 0.2
ЮЗ 7 2600 м сильн. морось {ливн. дождь, дымка} 10/10 200 м
[]
+17.3 +16.8 97 +16 +16 1011.4 1012.0 0.5
ЮЗ 6 2600 м сильн. морось {ливн. дождь, дымка} 10/10 200 м
[]
+17.5 +17.1 98 +17 +17 1011.0 1011.6 0.8
ЮЗ 6-10
{15}
5000 м морось с дождем {ливн. дождь} 10 баллов +17.7 +17.1 96 +17 +17 1010.6 1011.1 +17.9 0.6
ЮЗ 7 4900 м морось 10/10 300 м
[]
+17.8 +17.2 96 +17 +17 1010.2 1010.7 0.3
ЮЗ 9 3600 м морось с дождем 10/8 600 м
[]
+17.7 +17.1 96 +17 +17 1010.1 1010.6 2
ЮЗ 7-11
{13}
3900 м слаб. морось {дождь} 10/10 180 м
[]
+17.5 +16.9 96 +17 +17 1010.0 1010.5 0.5
ЮЗ 8-12
{12}
5000 м морось {дождь} 10/6 200 м
[]
+17.5 +16.9 96 +16 +16 1009.6 1010.1 0.2
ЮЗ 9-13
{15}
25 км в посл. час осадки {ливн. дождь, морось} 10/6 300 м
[]
+17.4 +16.0 91 +16 +16 1009.6 1010.1 0.1
ЮЗ 7-10
{15}
15 км {ливн. дождь, морось} 10/10 240 м
[]
+17.2 +16.1 93 +16 +16 1009.3 1009.8
ЮЗ 9-12
{12}
11 км 10/10 300 м
[]
+17.1 +15.9 93 +16 +16 1009.0 1009.5
ЮЗ 10-14
{14}
11 км 10/10 300 м
[]
+17.2 +15.8 91 +16 +16 1008.4 1008.9
ЮЗ 11-15
{15}
9000 м дымка 10/10 400 м
[]
+17.1 +15.5 90 +15 +15 1008.1 1008.5
ЮЗ 10 18 км 10/10 300 м
[]
+16.9 +15.2 90 +15 +15 1007.7 1008.2
ЮЗ 11 21 км 10/10 300 м
[]
+16.9 +15.2 90 +15 +15 1007.6 1008.1
ЮЗ 10-14
{16}
12 км 10/10 300 м
[]
+16.6 +15.2 91 +15 +15 1007.5 1008.0 +16.6 5.2
ЮЗ 11 7000 м дымка 10/10 300 м
[]
+16.8 +15.6 93 +15 +15 1007.9 1008.4
ЮЗ 9 2500 м морось {ливн. дождь, дымка} 10/9 200 м
[]
+17.0 +16.4 96 +16 +16 1008.3 1008.8 0.2
ЮЗ 11-14
{16}
4000 м в посл. час морось {ливн. дождь, дымка} 10/10 180 м
[]
+17.7 +16.7 94 +16 +16 1008.4 1008.9 0.1
ЮЗ 11 30 км в посл. час дождь {ливн. дождь} 10/10 300 м
[]
+18.9 +16.6 87 +19 +19 1008.3 1008.9 0.1
ЮЗ 12 30 км {ливн. дождь, дымка} 10/8 600 м
[]
+19.5 +16.4 82 +20 +20 1008.5 1009.0
ЮЗ 12-16
{18}
30 км {ливн. дождь, дымка} 9 баллов +20.6 +16.1 75 +23 +23 комфорт 1008.6 1009.1 0.3
ЮЗ 12 35 км 5/4 600 м
[]
+21.4 +14.7 66 +24 +24 комфорт 1008.8 1009.3
З 10 30 км 8/8 1000 м
[]
+20.8 +14.6 68 +23 +23 комфорт 1009.0 1009.6
З 10 30 км 4/4 600 м
[]
+20.4 +14.9 71 +22 +23 комфорт 1009.3 1009.7
Местоположение метеостанции Лелистад (Нидерланды): широта 52.45 долгота 5.53 высота над уровнем моря -3 м.
В архиве по умолчанию представлена погода в Лелистаде за последнюю неделю. Архивные данные за месяц целиком и за предыдущие месяцы, начиная с января 2011 года, Вы можете получить, выбрав интересующий диапазон дат из раскрывающегося списка и нажав кнопку "Найти!".
*Определитесь, кто Вы:
Внимание! Время в таблицах - всемирное. Для получения местного времени необходимо прибавить поправку, которая равна 1 ч.
Смотрите также архив погоды в соседних городах и на ближайших метеорологических станциях:
Партнеры нашего сайта:      
Пояснения к столбцам:
  • Ветер - указаны скорость ветра в м/с - средняя за 10 мин, порывы в срок и между сроками (в фигурных скобках) и направление, откуда дует ветер: С - северный,
  • СВ - северо-восточный, В - восточный, ЮВ - юго-восточный, Ю - южный, ЮЗ - юго-западный, З - западный, СЗ - северо-западный.
  • Видимость - горизонтальная дальность видимости в метрах или километрах. При видимости от 1 до 10 км при отсутствии осадков обычно наблюдается дымка, при ухудшении видимости до 1 км и менее - туман. В сухую погоду видимость может ухудшаться дымом, пылью или мглою.
  • Явления - указаны атмосферные явления, наблюдавшиеся в срок или в последний час перед сроком; фигурными скобками обозначены явления, наблюдавшиеся между сроками (за 1-3 часа до срока); квадратными скобками обозначены град или гололедные отложения с указанием их диаметра в мм.
  • Облачность - указаны через наклонную черту общая и нижняя облачность в баллах и высота нижней границы облаков в метрах; квадратными скобками обозначены формы облаков: Ci - перистые, Cs - перисто-слоистые, Cc - перисто-кучевые, Ac - высококучевые, As - высокослоистые, Sc - слоисто-кучевые, Ns - слоисто-дождевые, Cu - кучевые, Cb - кучево-дождевые. Подробнее классификацию облаков см. в Атласе облаков (PDF).
  • T - Температура воздуха - температура, измеренная на высоте 2 м над землей.
  • Td - Температура точки росы - температура, при понижении до которой содержащийся в воздухе водяной пар достигнет насыщения.
  • f - Относительная влажность воздуха - влажноcть воздуха, измеренная на высоте 2 м над землей.
  • Te - Эффективная температура - температура, которую ощущает одетый по сезону человек в тени. Характеристика душности погоды. При расчете учитывается влияние влажности воздуха и скорости ветра на теплоощущения человека.
  • Tes - Эффективная температура на солнце - температура, которую ощущает человек, с поправкой на солнечный нагрев. Характеристика знойности погоды. Зависит от высоты солнца над горизонтом, облачности и скорости ветра. Ночью, в пасмурную погоду, а также при ветре 12 м/с и более поправка равна нулю.
  • P - Атмосферное давление - приведенное к уровню моря атмосферное давление.
  • Po - Атмосферное давление - измеренное на уровне метеостанции атмосферное давление.
  • Tmin - Минимальная температура - минимум температуры воздуха на высоте 2 м над землей.
  • Tmax - Максимальная температура - максимум температуры воздуха на высоте 2 м над землей.
  • R - Количество осадков - Количество выпавших осадков за период времени, мм. При наведении курсора мыши на число - период времени, за который выпало указанное количество осадков.
  • R24 - Количество осадков - Количество выпавших осадков за 24 часа, мм.
  • S - Снежный покров - Высота снежного покрова, см. При наведении курсора мыши на число - состояние снежного покрова и степень покрытия местности в баллах.